Home > Weather > Sterling Heights > Past weeks

Flag for USA Past Weather in Sterling Heights, Michigan, USA — Yesterday and Last 2 Weeks

Now
67 °F

Clear.


Feels Like: 67 °F
Forecast: 67 / 88 °F
Wind: 3 mph from North

Location: Selfridge Air National Guard Base

Current Time: Jul 26, 2016 at 2:27:34 AM

Latest Report: Jul 26, 2016 at 1:58 AM


Visibility: 10 mi

Pressure: 29.98 "Hg

Humidity: 85%

Dew Point: 62 °F

Location of Sterling HeightsLocation

Past Weather in Sterling Heights — Graph

°F

Sterling Heights Temperature Yesterday

Maximum temperature yesterday: 89 °F (at 3:58 PM)
Minimum temperature yesterday: 76 °F (at 12:58 AM)
Average temperature yesterday: 82 °F

High & Low Weather Summary for the Past Weeks

 TemperatureHumidityPressure
High93 °F (Jul 22, 3:58 PM)99% (Jul 12, 5:58 AM)30.27 "Hg (Jul 12, 5:58 AM)
Low54 °F (Jul 20, 5:58 AM)24% (Jul 20, 7:58 AM)29.74 "Hg (Jul 14, 5:58 AM)
Average76 °F71%29.98 "Hg
* Reported Jul 11 12:58 AM — Jul 26 12:58 AM, Sterling Heights, Weather by CustomWeather, © 2016

Note: Actual official high and low records may vary slightly from our data, if they occured in-between our weather recording intervals... More about our weather records

Advertising

Sterling Heights Weather History for the Previous 24 Hours

Scroll right to see more
 ConditionsComfort  
Time TempWeatherWind HumidityBarometerVisibility
12:58 AM
Tue, Jul 26
71 °FClear.7 mph73%29.97 "Hg10 mi
11:58 PM
Mon, Jul 25
76 °FClear.7 mph60%29.95 "Hg10 mi
10:58 PM78 °FClear.6 mph59%29.94 "Hg12 mi
9:58 PM78 °FPassing clouds.3 mph64%29.94 "Hg12 mi
8:58 PM83 °FPassing clouds.8 mph52%29.92 "Hg10 mi
7:58 PM85 °FPassing clouds.13 mph49%29.88 "Hg10 mi
6:58 PM86 °FPassing clouds.13 mph46%29.87 "Hg10 mi
5:58 PM88 °FPassing clouds.12 mph45%29.86 "Hg10 mi
4:58 PM88 °FScattered clouds.13 mph45%29.87 "Hg10 mi
3:58 PM89 °FScattered clouds.13 mph47%29.88 "Hg10 mi
2:58 PM88 °FBroken clouds.16 mph48%29.89 "Hg10 mi
1:58 PM88 °FBroken clouds.12 mph49%29.90 "Hg10 mi
12:58 PM85 °FBroken clouds.8 mph59%29.90 "Hg10 mi
11:58 AM85 °FBroken clouds.10 mph63%29.90 "Hg10 mi
10:58 AM80 °FPartly sunny.8 mph74%29.91 "Hg10 mi
9:58 AM78 °FCloudy.9 mph78%29.89 "Hg10 mi
8:58 AM78 °FCloudy.12 mph79%29.88 "Hg10 mi
7:58 AM78 °FScattered showers. Cloudy.13 mph84%29.85 "Hg10 mi
6:59 AM79 °FLight rain. Passing clouds.9 mph89%29.83 "Hg10 mi
6:58 AM79 °FPassing clouds.9 mph87%29.84 "Hg10 mi
5:58 AM79 °FPassing clouds.8 mph89%29.84 "Hg10 mi
4:58 AM81 °FClear.13 mph84%29.85 "Hg10 mi
3:58 AM81 °FPassing clouds.10 mph83%29.84 "Hg10 mi
2:58 AM80 °FPassing clouds.8 mph84%29.84 "Hg10 mi
Weather by CustomWeather, © 2016

See weather overviewHow to use our weather pages